Météo par heure à Al Khums

Ce jour, 15 Mai, Samedi

Heure Température Précipitation Vent Pression Humidité
00:00 +22°C° 0 mm 7 m/s 757 mmHg 50%
01:00 +22°C° 0 mm 7 m/s 757 mmHg 50%
02:00 +22°C° 0 mm 7 m/s 757 mmHg 47%
03:00 +22°C° 0 mm 7 m/s 757 mmHg 44%
04:00 +23°C° 0 mm 7 m/s 757 mmHg 41%
05:00 +23°C° 0 mm 7 m/s 757 mmHg 50%
06:00 +22°C° 0 mm 7 m/s 758 mmHg 58%
07:00 +23°C° 0 mm 7 m/s 759 mmHg 65%
08:00 +23°C° 0 mm 8 m/s 760 mmHg 63%
09:00 +23°C° 0 mm 8 m/s 760 mmHg 60%
10:00 +23°C° 0 mm 8 m/s 761 mmHg 57%
11:00 +24°C° 0 mm 8 m/s 761 mmHg 54%
12:00 +24°C° 0 mm 8 m/s 761 mmHg 50%
13:00 +24°C° 0 mm 8 m/s 761 mmHg 47%
14:00 +23°C° 0 mm 8 m/s 761 mmHg 47%
15:00 +23°C° 0 mm 8 m/s 761 mmHg 46%
16:00 +23°C° 0 mm 7 m/s 761 mmHg 46%
17:00 +22°C° 0 mm 7 m/s 761 mmHg 50%
18:00 +21°C° 0 mm 7 m/s 761 mmHg 55%
19:00 +19°C° 0 mm 6 m/s 761 mmHg 59%
20:00 +19°C° 0 mm 5 m/s 761 mmHg 61%
21:00 +19°C° 0 mm 5 m/s 762 mmHg 63%
22:00 +18°C° 0 mm 4 m/s 762 mmHg 65%
23:00 +18°C° 0 mm 3 m/s 762 mmHg 65%

Demain, 16 Mai, Dimanche

Heure Température Précipitation Vent Pression Humidité
00:00 +18°C° 0 mm 3 m/s 761 mmHg 65%
01:00 +17°C° 0 mm 3 m/s 761 mmHg 65%
02:00 +17°C° 0 mm 2 m/s 761 mmHg 63%
03:00 +17°C° 0 mm 2 m/s 760 mmHg 61%
04:00 +17°C° 0 mm 2 m/s 760 mmHg 58%
05:00 +18°C° 0 mm 2 m/s 760 mmHg 50%
06:00 +21°C° 0 mm 1 m/s 761 mmHg 42%
07:00 +22°C° 0 mm 1 m/s 761 mmHg 35%
08:00 +24°C° 0 mm 1 m/s 761 mmHg 30%
09:00 +25°C° 0 mm 1 m/s 761 mmHg 26%
10:00 +27°C° 0 mm 1 m/s 761 mmHg 22%
11:00 +28°C° 0 mm 2 m/s 761 mmHg 22%
12:00 +29°C° 0 mm 2 m/s 760 mmHg 22%
13:00 +31°C° 0 mm 3 m/s 760 mmHg 22%
14:00 +30°C° 0 mm 4 m/s 760 mmHg 25%
15:00 +29°C° 0 mm 5 m/s 759 mmHg 29%
16:00 +28°C° 0 mm 5 m/s 759 mmHg 32%
17:00 +27°C° 0 mm 5 m/s 759 mmHg 37%
18:00 +25°C° 0 mm 4 m/s 759 mmHg 43%
19:00 +23°C° 0 mm 4 m/s 759 mmHg 48%
20:00 +23°C° 0 mm 4 m/s 759 mmHg 46%
21:00 +23°C° 0 mm 4 m/s 760 mmHg 43%
22:00 +23°C° 0 mm 4 m/s 760 mmHg 41%
23:00 +22°C° 0 mm 5 m/s 759 mmHg 41%

Après-demain, 17 Mai, Lundi

Heure Température Précipitation Vent Pression Humidité
00:00 +22°C° 0 mm 5 m/s 759 mmHg 41%
01:00 +22°C° 0 mm 6 m/s 759 mmHg 41%
02:00 +22°C° 0 mm 6 m/s 759 mmHg 39%
03:00 +22°C° 0 mm 6 m/s 758 mmHg 37%
04:00 +22°C° 0 mm 7 m/s 758 mmHg 36%
05:00 +24°C° 0 mm 7 m/s 758 mmHg 32%
06:00 +26°C° 0 mm 7 m/s 758 mmHg 28%
07:00 +28°C° 0 mm 7 m/s 759 mmHg 24%
08:00 +30°C° 0 mm 6 m/s 759 mmHg 22%
09:00 +34°C° 0 mm 5 m/s 758 mmHg 20%
10:00 +36°C° 0 mm 3 m/s 758 mmHg 18%
11:00 +37°C° 0 mm 3 m/s 758 mmHg 17%
12:00 +38°C° 0 mm 3 m/s 758 mmHg 17%
13:00 +39°C° 0 mm 3 m/s 757 mmHg 16%
14:00 +38°C° 0 mm 4 m/s 757 mmHg 18%
15:00 +37°C° 0 mm 4 m/s 757 mmHg 20%
16:00 +36°C° 0 mm 4 m/s 757 mmHg 22%
17:00 +34°C° 0 mm 4 m/s 757 mmHg 25%
18:00 +31°C° 0 mm 3 m/s 757 mmHg 27%
19:00 +30°C° 0 mm 3 m/s 757 mmHg 30%
20:00 +30°C° 0 mm 3 m/s 758 mmHg 28%
21:00 +30°C° 0 mm 4 m/s 758 mmHg 27%
22:00 +30°C° 0 mm 4 m/s 758 mmHg 25%
23:00 +30°C° 0 mm 5 m/s 758 mmHg 24%

18 Mai, Mardi

Heure Température Précipitation Vent Pression Humidité
00:00 +30°C° 0 mm 5 m/s 757 mmHg 23%
01:00 +30°C° 0 mm 6 m/s 757 mmHg 21%
02:00 +29°C° 0 mm 5 m/s 757 mmHg 22%
03:00 +29°C° 0 mm 4 m/s 757 mmHg 24%
04:00 +28°C° 0 mm 3 m/s 757 mmHg 25%
05:00 +30°C° 0 mm 2 m/s 757 mmHg 22%
06:00 +31°C° 0 mm 2 m/s 757 mmHg 20%
07:00 +34°C° 0 mm 2 m/s 757 mmHg 17%
08:00 +35°C° 0 mm 3 m/s 758 mmHg 17%
09:00 +37°C° 0 mm 4 m/s 758 mmHg 17%
10:00 +40°C° 0 mm 5 m/s 758 mmHg 17%
11:00 +39°C° 0 mm 5 m/s 758 mmHg 21%
12:00 +36°C° 0 mm 5 m/s 758 mmHg 25%
13:00 +35°C° 0 mm 6 m/s 758 mmHg 29%
14:00 +34°C° 0 mm 5 m/s 758 mmHg 32%
15:00 +33°C° 0 mm 5 m/s 758 mmHg 35%
16:00 +32°C° 0 mm 4 m/s 758 mmHg 37%
17:00 +29°C° 0 mm 4 m/s 759 mmHg 48%
18:00 +27°C° 0 mm 4 m/s 759 mmHg 59%
19:00 +25°C° 0 mm 4 m/s 759 mmHg 69%
20:00 +23°C° 0 mm 4 m/s 760 mmHg 70%
21:00 +24°C° 0 mm 3 m/s 760 mmHg 71%
22:00 +22°C° 0 mm 3 m/s 761 mmHg 72%
23:00 +22°C° 0 mm 3 m/s 761 mmHg 76%

19 Mai, Mercredi

Heure Température Précipitation Vent Pression Humidité
00:00 +22°C° 0 mm 4 m/s 761 mmHg 80%
01:00 +21°C° 0 mm 4 m/s 761 mmHg 84%
02:00 +21°C° 0 mm 5 m/s 761 mmHg 85%
03:00 +21°C° 0 mm 5 m/s 760 mmHg 87%
04:00 +20°C° 0 mm 5 m/s 760 mmHg 88%
05:00 +21°C° 0 mm 5 m/s 761 mmHg 80%
06:00 +21°C° 0 mm 6 m/s 761 mmHg 73%
07:00 +22°C° 0 mm 6 m/s 762 mmHg 65%
08:00 +23°C° 0 mm 6 m/s 762 mmHg 60%
09:00 +24°C° 0 mm 7 m/s 762 mmHg 55%
10:00 +26°C° 0 mm 7 m/s 763 mmHg 50%
11:00 +26°C° 0 mm 7 m/s 763 mmHg 49%
12:00 +27°C° 0 mm 6 m/s 762 mmHg 49%
13:00 +27°C° 0 mm 6 m/s 762 mmHg 49%
14:00 +26°C° 0 mm 6 m/s 762 mmHg 50%
15:00 +26°C° 0 mm 6 m/s 762 mmHg 51%
16:00 +24°C° 0 mm 6 m/s 762 mmHg 53%
17:00 +23°C° 0 mm 5 m/s 762 mmHg 60%
18:00 +22°C° 0 mm 4 m/s 762 mmHg 67%
19:00 +21°C° 0 mm 3 m/s 762 mmHg 74%
20:00 +21°C° 0 mm 3 m/s 762 mmHg 77%
21:00 +20°C° 0 mm 3 m/s 763 mmHg 79%
22:00 +20°C° 0 mm 3 m/s 763 mmHg 82%
23:00 +20°C° 0 mm 3 m/s 763 mmHg 83%

20 Mai, Jeudi

Heure Température Précipitation Vent Pression Humidité
00:00 +19°C° 0 mm 3 m/s 763 mmHg 85%
01:00 +19°C° 0 mm 3 m/s 762 mmHg 86%
02:00 +19°C° 0 mm 3 m/s 762 mmHg 83%
03:00 +19°C° 0 mm 3 m/s 762 mmHg 80%
04:00 +19°C° 0 mm 3 m/s 762 mmHg 77%
05:00 +20°C° 0 mm 3 m/s 763 mmHg 70%
06:00 +21°C° 0 mm 3 m/s 763 mmHg 63%
07:00 +21°C° 0 mm 2 m/s 763 mmHg 56%
08:00 +24°C° 0 mm 3 m/s 763 mmHg 49%
09:00 +25°C° 0 mm 4 m/s 763 mmHg 42%
10:00 +27°C° 0 mm 5 m/s 763 mmHg 35%
11:00 +27°C° 0 mm 5 m/s 763 mmHg 35%
12:00 +27°C° 0 mm 5 m/s 763 mmHg 35%
13:00 +27°C° 0 mm 6 m/s 763 mmHg 36%
14:00 +26°C° 0 mm 5 m/s 763 mmHg 39%
15:00 +26°C° 0 mm 5 m/s 763 mmHg 43%
16:00 +25°C° 0 mm 5 m/s 763 mmHg 47%
17:00 +23°C° 0 mm 4 m/s 763 mmHg 54%
18:00 +22°C° 0 mm 4 m/s 763 mmHg 62%
19:00 +21°C° 0 mm 3 m/s 763 mmHg 70%
20:00 +21°C° 0 mm 3 m/s 763 mmHg 74%
21:00 +20°C° 0 mm 3 m/s 763 mmHg 77%
22:00 +20°C° 0 mm 2 m/s 764 mmHg 81%
23:00 +19°C° 0 mm 2 m/s 763 mmHg 82%
Voir plus

Nous avons besoin de votre consentement

Meteoprog et ses fournisseurs de services peuvent stocker et accéder à des données personnelles telles que des cookies, des identifiants d'appareils ou d'autres technologies similaires sur votre appareil et traiter ces données pour personnaliser le contenu et les publicités, ainsi que pour fournir des fonctionnalités de médias sociaux et analyser le trafic.

  • Stocker et/ou accéder à des informations sur votre appareil

    Des cookies, des identifiants d'appareils ou d'autres informations peuvent être stockés ou accessibles sur votre appareil aux fins indiquées ci-dessus.

  • Annonces et contenus personnalisés, mesure des annonces et des contenus, connaissance de l'audience et développement de produits

    Les annonces et le contenu peuvent être personnalisés en fonction d'un profil. D'autres données peuvent être ajoutées pour mieux personnaliser les annonces et le contenu. Les performances des publicités et du contenu peuvent être mesurées. Il est possible d'obtenir des informations sur le public qui a vu les publicités et le contenu. Ces données peuvent être utilisées pour développer ou améliorer l'expérience de l'utilisateur, les systèmes et les logiciels.

En cliquant sur "J'accepte", vous autorisez l'utilisation de cookies, des identifiants d'appareils, des balises web ou d'autres technologies similaires. Vos paramètres peuvent être modifiés dans le navigateur de votre appareil.

Dans certains cas, des intérêts légitimes peuvent être invoqués plutôt qu'un consentement. Vous pouvez en savoir plus à ce sujet dans notre Politique de confidentialité et de cookies.